Home   Weather   Gomel   Past weeks

Flag for Belarus Past Weather in Gomel, Belarus — Yesterday and Last 2 Weeks

Now
50 °F

Sunny.


Feels Like: 45 °F
Forecast: 30 / 49 °F
Wind: 13 mph from West

Location: Gomel'

Current Time: Apr 23, 2017 at 5:05:49 pm

Latest Report: Apr 23, 2017 at 4:30 pm


Visibility: 10 mi

Pressure: 29.74 "Hg

Humidity: 30%

Dew Point: 19 °F

Location of GomelLocation

Past Weather in Gomel — Graph

°F

Gomel Temperature Yesterday

Maximum temperature yesterday: 52 °F (at 3:00 pm)
Minimum temperature yesterday: 41 °F (at 9:00 pm)
Average temperature yesterday: 46 °F

High & Low Weather Summary for the Past Weeks

 TemperatureHumidityPressure
High66 °F (Apr 11, 1:00 pm)100% (Apr 14, 12:00 am)30.36 "Hg (Apr 14, 12:00 am)
Low25 °F (Apr 18, 6:00 am)25% (Apr 9, 2:00 pm)29.53 "Hg (Apr 22, 9:30 am)
Average43 °F63%29.90 "Hg
* Reported Apr 8 3:00 pm — Apr 23 3:30 pm, Gomel, Weather by CustomWeather, © 2017

Note: Actual official high and low records may vary slightly from our data, if they occured in-between our weather recording intervals... More about our weather records

Advertising

Gomel Weather History for the Previous 24 Hours

Scroll right to see more
 ConditionsComfort  
Time TempWeatherWind HumidityBarometerVisibility
3:30 pm
Sun, Apr 23
50 °FScattered clouds.13 mph32%29.74 "HgN/A
3:00 pm50 °FScattered clouds.13 mph32%29.74 "HgN/A
2:30 pm50 °FScattered clouds.10 mph32%29.74 "HgN/A
2:00 pm50 °FPartly sunny.15 mph32%29.74 "HgN/A
1:30 pm50 °FPartly sunny.15 mph37%29.74 "HgN/A
1:00 pm50 °FScattered clouds.15 mph37%29.74 "HgN/A
12:30 pm48 °FPartly sunny.15 mph40%29.74 "HgN/A
12:00 pm48 °FPartly sunny.15 mph40%29.74 "HgN/A
11:30 am46 °FScattered clouds.15 mph43%29.74 "HgN/A
11:00 am46 °FScattered clouds.15 mph43%29.74 "HgN/A
10:30 am45 °FScattered clouds.13 mph57%29.74 "HgN/A
10:00 am45 °FPassing clouds.13 mph57%29.74 "HgN/A
9:30 am41 °FPassing clouds.13 mph66%29.74 "HgN/A
9:00 am41 °FPassing clouds.10 mph66%29.74 "HgN/A
8:30 am37 °FSunny.10 mph75%29.74 "Hg10 mi
8:00 am37 °FSunny.10 mph75%29.71 "Hg10 mi
7:30 am34 °FSunny.13 mph87%29.71 "Hg10 mi
7:00 am34 °FSunny.10 mph87%29.71 "Hg10 mi
6:30 am32 °FClear.10 mph87%29.68 "Hg10 mi
6:00 am32 °FClear.10 mph87%29.68 "Hg10 mi
5:00 am34 °FClear.10 mph81%29.68 "Hg10 mi
4:00 am34 °FClear.13 mph81%29.68 "Hg10 mi
3:00 am36 °FClear.10 mph75%29.68 "Hg10 mi
2:00 am37 °FClear.13 mph70%29.68 "Hg10 mi
1:00 am37 °FClear.10 mph70%29.68 "Hg10 mi
12:00 am39 °FClear.13 mph65%29.68 "Hg10 mi
11:00 pm
Sat, Apr 22
41 °FClear.10 mph61%29.68 "Hg10 mi
9:00 pm41 °FSunny.10 mph61%29.65 "Hg10 mi
8:30 pm45 °FSunny.13 mph53%29.65 "Hg10 mi
8:00 pm45 °FPartly sunny.15 mph53%29.65 "HgN/A
7:30 pm46 °FBroken clouds.24 mph53%29.65 "HgN/A
7:00 pm46 °FBroken clouds.24 mph53%29.65 "HgN/A
6:30 pm48 °FBroken clouds.29 mph46%29.62 "HgN/A
6:00 pm48 °FBroken clouds.24 mph46%29.62 "HgN/A
5:30 pm50 °FScattered clouds.29 mph40%29.62 "HgN/A
5:00 pm50 °FPartly sunny.33 mph40%29.59 "HgN/A
Weather by CustomWeather, © 2017

See weather overviewHow to use our weather pages